Regional Weather Roundup
Issued by NWS

Home | Current Version | Previous Version | Graphics & Text | Print | Product List | Glossary On
Versions: 1 2 3 4 5 6 7 8 9 10 11 12 13 14 15 16 17 18 19 20 21 22 23 24 25 26 27 28 29 30 31 32 33 34 35 36 37 38 39 40 41 42 43 44 45 46 47 48 49 50
000
ASUS43 KMKX 022011
RWRWI

WISCONSIN REGIONAL WEATHER ROUNDUP
NATIONAL WEATHER SERVICE MILWAUKEE/SULLIVAN WI
300 PM CDT WED SEP 02 2015

NOTE: "FAIR" INDICATES FEW OR NO CLOUDS BELOW 12,000 FEET WITH NO
SIGNIFICANT WEATHER AND/OR OBSTRUCTIONS TO VISIBILITY.

WIZ001-002-006>008-014>016-023>028-022100-
NORTHWEST WISCONSIN

CITY           SKY/WX    TMP DP  RH WIND       PRES   REMARKS
SUPERIOR ARPT  PTSUNNY   69  65  88 E10G20    29.96R
ASHLAND        CLOUDY    74  69  85 CALM      29.96S
HAYWARD        CLOUDY    70  65  84 SE10G17   29.96F
SIREN          CLOUDY    72  65  79 SE9       29.94F
CUMBERLAND     CLOUDY    66  64  94 E7        29.97F
RICE LAKE      CLOUDY    67  65  94 E5        29.98F
CHETEK         CLOUDY   N/A N/A N/A MISG      29.97R
LADYSMITH      LGT RAIN  67  65  94 NE3       29.98F
EAU CLAIRE     CLOUDY    67  65  93 NE12      29.93F
MENOMONIE      RAIN      68  66  93 N6G20     29.96S
NEW RICHMOND   DRIZZLE   67  67  99 E7        29.95F
OSCEOLA        DRIZZLE   68  68 100 E6        29.97F
$$

WIZ003>005-009-010-017-018-022100-
NORTH CENTRAL WISCONSIN

CITY           SKY/WX    TMP DP  RH WIND       PRES   REMARKS
MANITOWISH WTR CLOUDY    68  68  99 E6        30.00F
ARBOR VITAE    LGT RAIN  69  68  94 SE5       30.00F
WOODRUFF       LGT RAIN  69  68  94 SE5       30.00F
RHINELANDER    LGT RAIN  69  67  93 NE7       30.01F FOG
EAGLE RIVER    LGT RAIN  68  68  99 CALM      30.01F
LAND O LAKES   LGT RAIN  69  67  93 SE5       30.02F
PHILLIPS       CLOUDY    66  65  94 E5        29.98F
TOMAHAWK       LGT RAIN  67  65  94 CALM      29.99F
MEDFORD        CLOUDY    68  67  98 E3        29.97F
MERRILL        CLOUDY    70  69  96 E6        29.99F
$$

WIZ029-030-035-036-043>047-022100-
CENTRAL WISCONSIN

CITY           SKY/WX    TMP DP  RH WIND       PRES   REMARKS
WAUSAU         TSTM      76  69  79 NE10      29.96S
MOSINEE        PTSUNNY   75  66  73 NE7       29.98F
MARSHFIELD     MOSUNNY   84  66  54 SE7       29.95F HX  86
STEVENS POINT  MOSUNNY   84  66  54 S9        29.95F HX  86
WAUPACA        PTSUNNY   89  65  43 S12G20    29.95F HX  91
WAUTOMA        MOSUNNY   88  68  51 SW10      29.96F HX  91
WISC RAPIDS    SUNNY     86  67  52 S10       29.96F HX  89
CAMP DOUGLAS   MOSUNNY   86  73  66 VRB2      29.94F HX  93
$$

WIZ011>013-019>022-031-037>040-048>050-022100-
NORTHEAST WISCONSIN

CITY           SKY/WX    TMP DP  RH WIND       PRES   REMARKS
ANTIGO         LGT RAIN  68  65  89 N9G17     30.00F
SHAWANO        CLOUDY    82  71  69 N8        29.94F HX  87
OCONTO         PTSUNNY   76  74  91 E7        29.93F
STURGEON BAY   MOSUNNY   77  70  78 E12       29.97F
GREEN BAY      PTSUNNY   85  72  65 SW8       29.94F HX  91
MANITOWOC      MOSUNNY   88  65  46 MISG      29.95F HX  90
APPLETON       MOSUNNY   84  66  54 S13       29.95F HX  86
CLINTONVILLE   PTSUNNY   88  66  48 S12       29.94F HX  90
OSHKOSH        PTSUNNY   84  70  62 S12       29.95F HX  88
$$

WIZ032>034-041-042-053>061-022100-
SOUTHWEST WISCONSIN

CITY           SKY/WX    TMP DP  RH WIND       PRES   REMARKS
LA CROSSE      MOSUNNY   87  68  52 S13       29.91F HX  90
SPARTA         MOSUNNY   86  63  45 S9        29.94F HX  87
VIROQUA          N/A     83  67  57 S9        29.97F HX  85
BOSCOBEL       MOSUNNY   87  66  49 S10G18    29.95F HX  89
PRAIRIE DU CHI SUNNY     85  64  48 S10G16    29.93F HX  87
PLATTEVILLE    PTSUNNY   82  71  69 S13       29.98F HX  85
$$

WIZ056-057-062-063-064-067-068-022100-
SOUTH CENTRAL WISCONSIN

CITY           SKY/WX    TMP DP  RH WIND       PRES   REMARKS
REEDSBURG      MOSUNNY   85  69  57 S10       29.96F HX  89
BARABOO/DELLS  MOSUNNY   87  63  45 SW13      29.97S HX  87
LONE ROCK      MOSUNNY   86  67  52 S10       29.96F HX  89
MINERAL POINT  MOSUNNY   84  68  58 SW10      29.99F HX  87
MADISON        CLOUDY    84  67  56 S12       29.97F HX  86
MIDDLETON      CLOUDY    86  66  52 SW13      29.99F HX  88
WATERTOWN      PTSUNNY   84  69  60 SW10      29.98F HX  88
MONROE         CLOUDY    82  68  61 SW14G20   30.00F HX  85
JANESVILLE     PTSUNNY   88  66  48 SW14G20   29.99F HX  90
$$

WIZ051-052-058>065-066-070>072-022100-
SOUTHEAST WISCONSIN

CITY           SKY/WX    TMP DP  RH WIND       PRES   REMARKS
MILWAUKEE      PTSUNNY   88  67  49 SW9       29.98F HX  91
WAUKESHA       SUNNY     84  66  54 SW12      30.00F HX  86
MILWAUKEE/TIMM SUNNY     88  64  45 SW7       29.99F HX  89
RACINE         MOSUNNY   89  67  47 SW12G18   30.00F HX  92
BURLINGTON     MOSUNNY   87  67  50 SW10      29.99F HX  90
KENOSHA        PTSUNNY   88  69  53 SW6       29.99F HX  92
FOND DU LAC    PTSUNNY   85  69  58 SW9       29.97F HX  89
SHEBOYGAN      MOSUNNY   87  70  56 SW13      29.97F HX  92
WEST BEND      MOSUNNY   86  66  51 W7        29.98F HX  88
JUNEAU         CLOUDY    82  71  68 SW7       29.99F HX  86
$$

LSZ147-162-022100-
LAKE SUPERIOR

STATION/POSITION TIME  TEMP    WIND        PRES    WAVE
                       AIR SEA DIR/SP/G            HT/PER
                 (UTC) (F)     (DEG/KT/KT) (MB)    (FT/S)
W MID LAKE BUOY  1950   59 56   30/  2/  6 1015.8R   0
DEVILS ISLAND    2000   61      30/  3/  4 1015.4R
PORT WING        1900   66      10/ 14/ 17 1014.6
SAXON HARBOR     1900   72     170/  2/  6 1014.2F
$$

LMZ867-665-643>646-022100-
LAKE MICHIGAN

STATION/POSITION TIME  TEMP    WIND        PRES    WAVE
                       AIR SEA DIR/SP/G            HT/PER
                 (UTC) (F)     (DEG/KT/KT) (MB)    (FT/S)
CHAMBERS ISLAND  1900   76     110/  5/  9 1014.6F
S GREEN BAY BUOY 1930   76 68  140/  6/  6 1015.4F
N MID LAKE BUOY  1950   68 66   40/ 12/ 14 1014.0F   1/ 2
NORTHPORT PIER   1900   71     140/  3/ 16 1014.6F
SISTER BAY       1934          120/  8/ 10   N/A
ALGOMA LAKESHORE 1914             CALM       N/A
KEWAUNEE LAKESHO 1900   62     160/  7/  9 1013.8F
SHEBOYGAN LAKESH 2000   77     180/ 17/ 18 1014.5F
PORT WASHINGTON  1900   70     190/  6/  8 1016.3
ATWATER BUOY     2000   62     140/  6/  8 1016.3F
MILWAUKEE LAKESH 1910   86     250/ 10/ 13   N/A
S MID LAKE BUOY  1950   74 72  180/  6/  8 1015.4F   1
KENOSHA   LAKESH 2000   72     170/ 13/ 17 1014.6F
$$

TC  - TEMPERATURE IN CELSIUS
VSB - VISIBILITY IN STATUTE MILES
WCI - WIND CHILL INDEX
HX  - HEAT INDEX



USA.gov is the U.S. government's official web portal to all federal, state and local government web resources and services.